Location: *
(46.3500°N, 10.9000°E)
Time: 21:48:36
(UTC+00:00)

A-11 Canister half - Pass Details

Date: 27 April 2021
Orbit: 1526 x 1682 km, 47.3° (Epoch: 13 May)

Event Time Altitude Azimuth Distance (km) Brightness Sun altitude
Rises 16:58:52 0° 284° (WNW) 4,903 13.6 12.7°
Reaches altitude 10° 17:01:59 10° 284° (WNW) 3,928 14.0 12.2°
Maximum altitude 17:12:08 82° 200° (SSW) 1,699 9.5 10.4°
Drops below altitude 10° 17:22:18 10° 114° (ESE) 3,929 10.6 8.7°
Sets 17:25:26 0° 114° (ESE) 4,905 11.0 8.2°
